C/2017 S6 ( Catalina )

Japanese version
Home page
Updated on November 7, 2017

---------------------------------------------------------------------

* Profile

Discovery Date September 30, 2017
Magnitude 17.9 mag
Discoverer G. J. Leonard (Catalina Sky Survey)

* Pictures

* Orbital Elements

T 2018 Feb. 27.00005 TT                                 MPCW
q   1.5421250            (2000.0)            P               Q
                   Peri.  134.75331     +0.93849676     -0.00872967
                   Node   130.88589     -0.23790169     -0.74088255
e   1.0            Incl.  152.83366     +0.25025310     -0.67157787
From 59 observations 2017 Sept. 30-Oct. 7.

* Finding Charts

* Magnitudes Graph

        m1 = 12.5 + 5 log d + 10.0 log r

---------------------------------------------------------------------

The orbital elements are published on M.P.E.C. 2017-T37.
The charts are made with StellaNavigator Ver.10 (AstroArts).
The magnitudes graphs are made with Comet for Windows.

---------------------------------------------------------------------

Copyright(C) Seiichi Yoshida (comet@aerith.net). All rights reserved.